User: anonymous   Login
Location: Caltech
(34.1382°N, 118.1253°W)
Time: 21:38:08
(UTC-08:00)
Language:

Sapphire - Orbit

View from above orbital plane
View from above orbital plane
View from above satellite
View from above satellite

Ground track
Ground track

The orbit data is extracted from the following two-line orbital elements,

1 26932U 01043D   15030.80935030  .00000069  00000-0  58731-4 0  8168
2 26932 067.0568 172.6323 0008785 268.9063 091.1032 14.30098567696192
Epoch (UTC): 30 January 2015 19:25:27
Eccentricity: 0.0008785
inclination: 67.0568°
perigee height: 785 km
apogee height: 798 km
right ascension of ascending node: 172.6323°
argument of perigee: 268.9063°
revolutions per day: 14.30098567
mean anomaly at epoch: 91.1032°
orbit number at epoch: 69619

The dashed part of the orbit path shows where the satellite is in the earth's shadow,  

DLR